Погода в Гулистане

Узбекистан     40°29′33″N   68°46′37″E
темп.,
°C
ветер,
м/с
пор.,
м/с
влажн.,
%
обл.,
%
осадки,
мм/ч
давл.,
гПа
погр.,
м
27 февраля, сб
сб2723:00−3всв115899 0.0 103032
02:00−3св0157100 0.0 102827
05:00−3всв1255100 0.0 102871
08:00−2в2347100 0.0 1028213
11:00+2юв4636100 0.1 1029371
14:00+6ююв2332100 0.0 1028912
17:00+6ююв343087 0.0 10281053
20:00+3юв34461 0.0 103062
28 февраля, вс
вс2823:00+2юв37461 0.0 1030151
02:00+2юв614380 0.0 1028423
05:00+1юв714430 0.0 1026387
08:00+2вюв511430 0.0 1025355
11:00+8вюв712290 0.0 1022818
14:00+11вюв710250 0.0 1020934
17:00+11вюв58260 0.0 1019843
20:00+7вюв46390 0.0 1021139
1 марта, пн
пн123:00+6юв484047 0.0 1021195
02:00+5вюв4743100 0.0 1021155
05:00+5юв51144100 0.0 1021231
08:00+6юв61242100 0.0 1021265
11:00+12юв7112665 0.0 1020506
14:00+16юв810200 0.0 1018619
17:00+15юв711210 0.0 1018475
20:00+11юв714260 0.0 1021304
2 марта, вт
вт223:00+10юв714290 0.0 1021269
02:00+10юв8142797 0.0 1021257
05:00+9юв7132998 0.0 1021249
08:00+9ююв61130100 0.0 1022250
11:00+13юв5826100 0.0 1021509
14:00+16вюв3421100 0.0 1020798
17:00+16с1125100 0.0 1020401
20:00+13всв2336100 0.0 102240
3 марта, ср
ср323:00+12юв0140100 0.0 102223
02:00+11юв1143100 0.0 102124
05:00+10ссв3453100 0.0 102192
08:00+9всв4576100 0.4 1021156
11:00+10св2274100 0.4 1020339
14:00+12ссз3361100 0.0 1019904
17:00+9с4679100 1.1 1019375
20:00+9в587993 0.1 1019350